Overview Statistics Trail Chart Weather Telemetry Raw packets
 

This is the latest recevied weather packets stored in our database for station/object XE2RCS-1. If no packets are shown the sender has not sent any weather packets the latest 10 day(s).

<< 7 8 9 10 11 12 13 >>
Time Temp. Humidity Pressure Rain* Wind** Luminosity Snow
1788550116 30° C 51% 1016 hPa 0 mm - - -
1788549543 28.89° C 38% 1016 hPa 0 mm - - -
1788548914 28.89° C 38% 1016 hPa 0 mm - - -
1788548314 29.44° C 38% 1014 hPa 0 mm - - -
1788547713 29.44° C 37% 1014 hPa 0 mm - - -
1788547112 28.89° C 37% 1014 hPa 0 mm - - -
1788546512 28.89° C 37% 1016 hPa 0 mm - - -
1788545911 28.89° C 37% 1016 hPa 0 mm - - -
1788545311 28.33° C 38% 1016 hPa 0 mm - - -
1788544710 28.33° C 39% 1015 hPa 0 mm - - -
1788544109 27.78° C 40% 1015 hPa 0 mm - - -
1788543509 28.33° C 38% 1015 hPa 0 mm - - -
1788542908 28.89° C 35% 1018 hPa 0 mm - - -
1788542308 28.89° C 35% 1018 hPa 0 mm - - -
1788541707 28.89° C 36% 1018 hPa 0 mm - - -
1788541106 28.89° C 37% 1016 hPa 0 mm - - -
1788540506 28.89° C 39% 1016 hPa 0 mm - - -
1788539905 27.22° C 40% 1016 hPa 0 mm - - -
1788539305 27.22° C 40% 1018 hPa 0 mm - - -
1788538704 26.67° C 41% 1018 hPa 0 mm - - -
1788538103 26.67° C 42% 1018 hPa 0 mm - - -
1788537503 26.67° C 43% 1016 hPa 0 mm - - -
1788536902 26.67° C 43% 1016 hPa 0 mm - - -
1788536301 25.56° C 51% 1016 hPa 0 mm - - -
1788535701 25.56° C 58% 1018 hPa 0 mm - - -

* Rain latest hour (hover to see other rain measurements)
** Current wind speed in m/s (hover to see current wind gust speed)